This demonstration page uses our WeatherBlox Daily Observations layout. Learn more.

Left ArrowRight Arrow

38.20091, -84.87328

Hourly Observations for March 12, 2022

Temp ( °F °C ) Dew Point ( °F °C ) Humidity (%) Winds ( mph kmh ) Pressure ( in mb ) Visibility ( mi km ) Precip ( " mm )
12:02 am 00:02 Cloudy with Light Snow 28 -2.2 24 -4.4 85 85 NNW 13 20 30.02 1017 3 4 0.00 0.00
12:10 am 00:10 Cloudy with Light Snow 28 -2.2 23 -5 81 81 NNW 12 19 30.02 1017 4 6 0.00 0.00
12:28 am 00:28 Cloudy with Light Snow 27 -2.8 23 -5 85 85 NW 8 13 30.01 1016 2 3 0.00 0.00
12:35 am 00:35 Cloudy with Light Snow 27 -2.8 24 -4.4 89 89 WNW 6 9 30.00 1016 2 3 0.00 0.00
12:53 am 00:53 Cloudy with Light Snow 27 -2.8 24 -4.4 89 89 WNW 5 7 29.96 1015 2 2 0.00 0.00
1:08 am 01:08 Mostly Cloudy with Light Snow 27 -2.8 25 -3.9 92 92 WNW 6 9 30.01 1016 1 2 0.01 0.25
1:20 am 01:20 Cloudy with Light Snow 27 -2.8 23 -5 85 85 NNW 14 22 30.01 1016 2 2 0.01 0.25
1:53 am 01:53 Cloudy with Light Snow 27 -2.8 22 -5.6 81 81 NNW 10 17 29.96 1015 2 3 0.01 0.25
2:01 am 02:01 Cloudy with Light Snow 27 -2.8 21 -6.1 78 78 NNW 12 19 30.01 1016 3 5 0.00 0.00
2:53 am 02:53 Cloudy 26 -3.3 15 -9.4 63 63 NW 12 19 29.98 1015 10 16 0.00 0.00
3:53 am 03:53 Cloudy 25 -3.9 15 -9.4 66 66 NW 7 11 29.96 1015 10 16 0.00 0.00
4:53 am 04:53 Cloudy 25 -3.9 12 -11.1 58 58 NNW 15 24 29.99 1016 10 16 0.00 0.00
5:53 am 05:53 Clear 22 -5.6 9 -12.8 57 57 NW 13 20 30.01 1016 10 16 0.00 0.00
6:53 am 06:53 Clear 20 -6.7 8 -13.3 60 60 NW 13 20 30.04 1017 10 16 0.00 0.00
7:53 am 07:53 Mostly Cloudy 20 -6.7 9 -12.8 62 62 NW 13 20 30.08 1019 10 16 0.00 0.00
8:53 am 08:53 Partly Cloudy 20 -6.7 8 -13.3 60 60 NW 16 26 30.10 1019 10 16 0.00 0.00
9:53 am 09:53 Mostly Sunny 21 -6.1 8 -13.3 57 57 NW 16 26 30.12 1020 10 16 0.00 0.00
10:53 am 10:53 Mostly Cloudy 22 -5.6 9 -12.8 57 57 WNW 15 24 30.15 1021 10 16 0.00 0.00
11:53 am 11:53 Partly Cloudy 23 -5 7 -13.9 50 50 W 15 24 30.17 1022 10 16 0.00 0.00
12:53 pm 12:53 Mostly Cloudy 25 -3.9 6 -14.4 44 44 WNW 14 22 30.19 1022 10 16 0.00 0.00
1:53 pm 13:53 Mostly Cloudy 25 -3.9 6 -14.4 44 44 WNW 17 28 30.18 1022 10 16 0.00 0.00
2:53 pm 14:53 Partly Cloudy 26 -3.3 7 -13.9 44 44 NW 16 26 30.17 1022 10 16 0.00 0.00
3:53 pm 15:53 Partly Cloudy 27 -2.8 6 -14.4 41 41 WNW 13 20 30.18 1022 10 16 0.00 0.00
4:53 pm 16:53 Partly Cloudy 27 -2.8 6 -14.4 41 41 W 15 24 30.19 1022 10 16 0.00 0.00
5:53 pm 17:53 Sunny 27 -2.8 5 -15 39 39 W 13 20 30.21 1023 10 16 0.00 0.00
6:53 pm 18:53 Clear 26 -3.3 6 -14.4 42 42 W 6 9 30.24 1024 10 16 0.00 0.00
7:53 pm 19:53 Clear 24 -4.4 7 -13.9 48 48 W 7 11 30.25 1024 10 16 0.00 0.00
8:53 pm 20:53 Clear 23 -5 8 -13.3 53 53 W 3 6 30.29 1026 10 16 0.00 0.00
9:53 pm 21:53 Clear 22 -5.6 8 -13.3 55 55 W 5 7 30.30 1026 10 16 0.00 0.00
10:53 pm 22:53 Clear 18 -7.8 9 -12.8 68 68 SSW 6 9 30.31 1027 10 16 0.00 0.00
11:53 pm 23:53 Clear 19 -7.2 8 -13.3 62 62 SSW 7 11 30.31 1026 10 16 0.00 0.00

Powered by AerisWeather